Time,TemperatureF,DewpointF,PressureIn,WindDirection,WindDirectionDegrees,WindSpeedMPH,WindSpeedGustMPH,Humidity,HourlyPrecipIn,Conditions,Clouds,dailyrainin,SoftwareType,DateUTC
2013-02-17 00:00:00,33.7,22.8,29.79,NW,326,5.0,7.0,64,0.00,,,0.00,Wunderground v.1.15,2013-02-17 05:00:00,
2013-02-17 00:05:00,33.7,22.4,29.80,NW,326,5.0,7.0,63,0.00,,,0.00,Wunderground v.1.15,2013-02-17 05:05:00,
2013-02-17 00:10:00,33.7,22.8,29.79,NW,317,5.0,5.0,64,0.00,,,0.00,Wunderground v.1.15,2013-02-17 05:10:00,
2013-02-17 00:15:00,33.7,22.1,29.79,NNW,337,5.0,6.0,62,0.00,,,0.00,Wunderground v.1.15,2013-02-17 05:15:00,
2013-02-17 00:25:00,33.7,21.7,29.80,NNW,327,6.0,6.0,61,0.00,,,0.00,Wunderground v.1.15,2013-02-17 05:25:00,
2013-02-17 00:30:00,33.7,21.7,29.79,North,6,6.0,6.0,61,0.00,,,0.00,Wunderground v.1.15,2013-02-17 05:30:00,
2013-02-17 00:35:00,33.6,21.6,29.79,NW,325,5.0,6.0,61,0.00,,,0.00,Wunderground v.1.15,2013-02-17 05:35:00,
2013-02-17 00:45:00,33.6,21.2,29.79,NW,324,6.0,7.0,60,0.00,,,0.00,Wunderground v.1.15,2013-02-17 05:45:00,
2013-02-17 00:50:00,33.5,20.7,29.80,NNW,328,6.0,6.0,59,0.00,,,0.00,Wunderground v.1.15,2013-02-17 05:50:00,
2013-02-17 00:55:00,33.4,21.0,29.80,North,6,5.0,6.0,60,0.00,,,0.00,Wunderground v.1.15,2013-02-17 05:55:00,
2013-02-17 01:00:00,33.3,20.9,29.80,NW,319,5.0,5.0,60,0.00,,,0.00,Wunderground v.1.15,2013-02-17 06:00:00,
2013-02-17 01:10:00,33.0,21.0,29.80,NW,325,4.0,4.0,61,0.00,,,0.00,Wunderground v.1.15,2013-02-17 06:10:00,
2013-02-17 01:15:00,32.9,20.9,29.80,NNW,328,4.0,6.0,61,0.00,,,0.00,Wunderground v.1.15,2013-02-17 06:15:00,
2013-02-17 01:20:00,32.8,20.8,29.80,NW,313,5.0,5.0,61,0.00,,,0.00,Wunderground v.1.15,2013-02-17 06:20:00,
2013-02-17 01:25:00,32.6,21.0,29.80,WNW,293,5.0,5.0,62,0.00,,,0.00,Wunderground v.1.15,2013-02-17 06:25:00,
2013-02-17 01:30:00,32.5,21.3,29.80,NW,309,4.0,4.0,63,0.00,,,0.00,Wunderground v.1.15,2013-02-17 06:30:00,
2013-02-17 01:35:00,32.3,21.5,29.80,NW,319,4.0,5.0,64,0.00,,,0.00,Wunderground v.1.15,2013-02-17 06:35:00,
2013-02-17 01:40:00,32.1,21.7,29.80,NW,311,4.0,5.0,65,0.00,,,0.00,Wunderground v.1.15,2013-02-17 06:40:00,
2013-02-17 01:50:00,31.9,21.5,29.80,WNW,287,5.0,5.0,65,0.00,,,0.00,Wunderground v.1.15,2013-02-17 06:50:00,
2013-02-17 02:00:00,31.7,21.6,29.80,West,276,6.0,6.0,66,0.00,,,0.00,Wunderground v.1.15,2013-02-17 07:00:00,
2013-02-17 02:05:00,31.5,21.4,29.80,WNW,297,5.0,6.0,66,0.00,,,0.00,Wunderground v.1.15,2013-02-17 07:05:00,
2013-02-17 02:10:00,31.4,21.3,29.80,NW,315,5.0,5.0,66,0.00,,,0.00,Wunderground v.1.15,2013-02-17 07:10:00,
2013-02-17 02:15:00,31.3,21.6,29.80,West,280,5.0,5.0,67,0.00,,,0.00,Wunderground v.1.15,2013-02-17 07:15:00,
2013-02-17 02:20:00,31.1,21.1,29.80,WNW,294,5.0,5.0,66,0.00,,,0.00,Wunderground v.1.15,2013-02-17 07:20:00,
2013-02-17 02:30:00,31.0,21.3,29.81,WNW,296,6.0,6.0,67,0.00,,,0.00,Wunderground v.1.15,2013-02-17 07:30:00,
2013-02-17 02:35:00,30.9,21.2,29.81,NNW,342,6.0,7.0,67,0.00,,,0.00,Wunderground v.1.15,2013-02-17 07:35:00,
2013-02-17 02:45:00,30.7,21.0,29.81,NW,321,5.0,7.0,67,0.00,,,0.00,Wunderground v.1.15,2013-02-17 07:45:00,
2013-02-17 02:50:00,30.7,21.0,29.81,NW,325,5.0,5.0,67,0.00,,,0.00,Wunderground v.1.15,2013-02-17 07:50:00,
2013-02-17 02:55:00,30.6,21.3,29.81,NW,323,5.0,6.0,68,0.00,,,0.00,Wunderground v.1.15,2013-02-17 07:55:00,
2013-02-17 03:05:00,30.4,21.1,29.81,North,5,5.0,5.0,68,0.00,,,0.00,Wunderground v.1.15,2013-02-17 08:05:00,
2013-02-17 03:10:00,30.4,21.4,29.81,NW,320,4.0,5.0,69,0.00,,,0.00,Wunderground v.1.15,2013-02-17 08:10:00,
2013-02-17 03:15:00,30.3,21.0,29.81,WNW,301,5.0,5.0,68,0.00,,,0.00,Wunderground v.1.15,2013-02-17 08:15:00,
2013-02-17 03:20:00,30.3,21.0,29.81,NW,322,5.0,6.0,68,0.00,,,0.00,Wunderground v.1.15,2013-02-17 08:20:00,
2013-02-17 03:25:00,30.2,20.9,29.81,NW,322,5.0,7.0,68,0.00,,,0.00,Wunderground v.1.15,2013-02-17 08:25:00,
2013-02-17 03:35:00,30.1,20.8,29.81,NNW,338,5.0,5.0,68,0.00,,,0.00,Wunderground v.1.15,2013-02-17 08:35:00,
2013-02-17 03:45:00,30.0,20.4,29.81,NW,315,5.0,5.0,67,0.00,,,0.00,Wunderground v.1.15,2013-02-17 08:45:00,
2013-02-17 03:50:00,30.0,20.4,29.81,WNW,286,5.0,5.0,67,0.00,,,0.00,Wunderground v.1.15,2013-02-17 08:50:00,
2013-02-17 03:55:00,29.9,20.3,29.81,West,279,4.0,5.0,67,0.00,,,0.00,Wunderground v.1.15,2013-02-17 08:55:00,
2013-02-17 04:00:00,29.8,20.2,29.81,NNW,341,4.0,4.0,67,0.00,,,0.00,Wunderground v.1.15,2013-02-17 09:00:00,
2013-02-17 04:05:00,29.8,20.5,29.81,NNW,347,4.0,4.0,68,0.00,,,0.00,Wunderground v.1.15,2013-02-17 09:05:00,
2013-02-17 04:10:00,29.8,20.2,29.81,NW,315,4.0,6.0,67,0.00,,,0.00,Wunderground v.1.15,2013-02-17 09:10:00,
2013-02-17 04:15:00,29.7,20.1,29.81,NW,319,5.0,6.0,67,0.00,,,0.00,Wunderground v.1.15,2013-02-17 09:15:00,
2013-02-17 04:20:00,29.7,20.1,29.82,North,359,5.0,5.0,67,0.00,,,0.00,Wunderground v.1.15,2013-02-17 09:20:00,
2013-02-17 04:25:00,29.6,20.0,29.82,NNW,332,4.0,6.0,67,0.00,,,0.00,Wunderground v.1.15,2013-02-17 09:25:00,
2013-02-17 04:35:00,29.5,19.9,29.82,NW,312,4.0,4.0,67,0.00,,,0.00,Wunderground v.1.15,2013-02-17 09:35:00,
2013-02-17 04:45:00,29.4,19.8,29.82,WSW,251,4.0,5.0,67,0.00,,,0.00,Wunderground v.1.15,2013-02-17 09:45:00,
2013-02-17 04:50:00,29.3,19.7,29.82,NW,314,4.0,6.0,67,0.00,,,0.00,Wunderground v.1.15,2013-02-17 09:50:00,
2013-02-17 04:55:00,29.3,19.7,29.83,NNW,334,4.0,6.0,67,0.00,,,0.00,Wunderground v.1.15,2013-02-17 09:55:00,
2013-02-17 05:00:00,29.2,19.6,29.83,NW,312,4.0,4.0,67,0.00,,,0.00,Wunderground v.1.15,2013-02-17 10:00:00,
2013-02-17 05:05:00,29.1,19.5,29.83,NW,306,4.0,4.0,67,0.00,,,0.00,Wunderground v.1.15,2013-02-17 10:05:00,
2013-02-17 05:10:00,29.0,19.8,29.83,West,263,4.0,4.0,68,0.00,,,0.00,Wunderground v.1.15,2013-02-17 10:10:00,
2013-02-17 05:20:00,28.9,19.7,29.83,NW,326,4.0,5.0,68,0.00,,,0.00,Wunderground v.1.15,2013-02-17 10:20:00,
2013-02-17 05:30:00,28.7,19.8,29.83,WSW,247,4.0,4.0,69,0.00,,,0.00,Wunderground v.1.15,2013-02-17 10:30:00,
2013-02-17 05:35:00,28.7,19.8,29.83,NW,325,4.0,6.0,69,0.00,,,0.00,Wunderground v.1.15,2013-02-17 10:35:00,
2013-02-17 05:40:00,28.6,19.7,29.83,NW,321,4.0,4.0,69,0.00,,,0.00,Wunderground v.1.15,2013-02-17 10:40:00,
2013-02-17 05:45:00,28.5,19.6,29.83,NNW,342,4.0,7.0,69,0.00,,,0.00,Wunderground v.1.15,2013-02-17 10:45:00,
2013-02-17 05:55:00,28.4,19.5,29.84,NW,304,4.0,4.0,69,0.00,,,0.00,Wunderground v.1.15,2013-02-17 10:55:00,
2013-02-17 06:00:00,28.3,19.4,29.84,West,279,3.0,3.0,69,0.00,,,0.00,Wunderground v.1.15,2013-02-17 11:00:00,
2013-02-17 06:05:00,28.2,19.3,29.84,NW,305,3.0,3.0,69,0.00,,,0.00,Wunderground v.1.15,2013-02-17 11:05:00,
2013-02-17 06:15:00,28.1,18.9,29.84,NW,323,4.0,8.0,68,0.00,,,0.00,Wunderground v.1.15,2013-02-17 11:15:00,
2013-02-17 06:20:00,28.0,18.8,29.84,NNW,338,4.0,4.0,68,0.00,,,0.00,Wunderground v.1.15,2013-02-17 11:20:00,
2013-02-17 06:30:00,27.9,18.7,29.84,NW,313,4.0,4.0,68,0.00,,,0.00,Wunderground v.1.15,2013-02-17 11:30:00,
2013-02-17 06:35:00,27.9,18.7,29.84,NNW,342,3.0,5.0,68,0.00,,,0.00,Wunderground v.1.15,2013-02-17 11:35:00,
2013-02-17 06:40:00,27.9,18.7,29.84,WNW,292,3.0,4.0,68,0.00,,,0.00,Wunderground v.1.15,2013-02-17 11:40:00,
2013-02-17 06:45:00,27.9,18.7,29.85,WNW,301,4.0,5.0,68,0.00,,,0.00,Wunderground v.1.15,2013-02-17 11:45:00,
2013-02-17 06:50:00,27.8,18.3,29.85,NW,308,4.0,6.0,67,0.00,,,0.00,Wunderground v.1.15,2013-02-17 11:50:00,
2013-02-17 07:00:00,27.7,18.2,29.85,WNW,284,4.0,4.0,67,0.00,,,0.00,Wunderground v.1.15,2013-02-17 12:00:00,
2013-02-17 07:05:00,27.7,17.8,29.85,NW,315,4.0,4.0,66,0.00,,,0.00,Wunderground v.1.15,2013-02-17 12:05:00,
2013-02-17 07:10:00,27.6,17.7,29.86,NW,317,4.0,5.0,66,0.00,,,0.00,Wunderground v.1.15,2013-02-17 12:10:00,
2013-02-17 07:15:00,27.6,17.7,29.86,NW,312,3.0,6.0,66,0.00,,,0.00,Wunderground v.1.15,2013-02-17 12:15:00,
2013-02-17 07:20:00,27.7,17.5,29.86,NW,319,3.0,6.0,65,0.00,,,0.00,Wunderground v.1.15,2013-02-17 12:20:00,
2013-02-17 07:25:00,27.7,17.1,29.86,WNW,300,4.0,6.0,64,0.00,,,0.00,Wunderground v.1.15,2013-02-17 12:25:00,
2013-02-17 07:35:00,27.8,17.2,29.86,NNW,335,4.0,5.0,64,0.00,,,0.00,Wunderground v.1.15,2013-02-17 12:35:00,
2013-02-17 07:40:00,27.9,16.9,29.87,WSW,257,5.0,5.0,63,0.00,,,0.00,Wunderground v.1.15,2013-02-17 12:40:00,
2013-02-17 07:45:00,28.1,17.1,29.87,NNW,330,4.0,5.0,63,0.00,,,0.00,Wunderground v.1.15,2013-02-17 12:45:00,
2013-02-17 07:55:00,28.1,16.7,29.87,SSW,203,5.0,6.0,62,0.00,,,0.00,Wunderground v.1.15,2013-02-17 12:55:00,
2013-02-17 08:00:00,28.2,16.5,29.87,NW,314,5.0,7.0,61,0.00,,,0.00,Wunderground v.1.15,2013-02-17 13:00:00,
2013-02-17 08:05:00,28.3,16.6,29.87,West,276,6.0,7.0,61,0.00,,,0.00,Wunderground v.1.15,2013-02-17 13:05:00,
2013-02-17 08:10:00,28.5,16.7,29.87,West,264,5.0,5.0,61,0.00,,,0.00,Wunderground v.1.15,2013-02-17 13:10:00,
2013-02-17 08:15:00,28.8,17.4,29.88,West,269,4.0,5.0,62,0.00,,,0.00,Wunderground v.1.15,2013-02-17 13:15:00,
2013-02-17 08:20:00,28.7,16.6,29.88,WNW,292,5.0,7.0,60,0.00,,,0.00,Wunderground v.1.15,2013-02-17 13:20:00,
2013-02-17 08:25:00,28.7,16.2,29.88,West,275,5.0,7.0,59,0.00,,,0.00,Wunderground v.1.15,2013-02-17 13:25:00,
2013-02-17 08:35:00,29.1,16.1,29.88,West,277,5.0,7.0,58,0.00,,,0.00,Wunderground v.1.15,2013-02-17 13:35:00,
2013-02-17 08:45:00,29.4,15.2,29.88,WNW,299,6.0,6.0,55,0.00,,,0.00,Wunderground v.1.15,2013-02-17 13:45:00,
2013-02-17 08:50:00,29.5,15.7,29.89,West,259,7.0,7.0,56,0.00,,,0.00,Wunderground v.1.15,2013-02-17 13:50:00,
2013-02-17 08:55:00,29.7,15.5,29.89,NW,324,6.0,7.0,55,0.00,,,0.00,Wunderground v.1.15,2013-02-17 13:55:00,
2013-02-17 09:00:00,29.7,15.5,29.89,NW,324,5.0,6.0,55,0.00,,,0.00,Wunderground v.1.15,2013-02-17 14:00:00,
2013-02-17 09:05:00,30.2,16.4,29.89,NW,313,5.0,7.0,56,0.00,,,0.00,Wunderground v.1.15,2013-02-17 14:05:00,
2013-02-17 09:10:00,30.1,15.0,29.89,WSW,251,5.0,7.0,53,0.00,,,0.00,Wunderground v.1.15,2013-02-17 14:10:00,
2013-02-17 09:15:00,30.4,15.3,29.89,NW,315,5.0,7.0,53,0.00,,,0.00,Wunderground v.1.15,2013-02-17 14:15:00,
2013-02-17 09:20:00,30.4,14.9,29.89,West,266,6.0,6.0,52,0.00,,,0.00,Wunderground v.1.15,2013-02-17 14:20:00,
2013-02-17 09:30:00,31.0,16.3,29.89,WNW,303,6.0,6.0,54,0.00,,,0.00,Wunderground v.1.15,2013-02-17 14:30:00,
2013-02-17 09:35:00,30.7,14.7,29.90,NW,309,5.0,6.0,51,0.00,,,0.00,Wunderground v.1.15,2013-02-17 14:35:00,
2013-02-17 09:40:00,30.9,14.9,29.90,NNW,338,6.0,6.0,51,0.00,,,0.00,Wunderground v.1.15,2013-02-17 14:40:00,
2013-02-17 09:45:00,30.9,14.9,29.90,NNW,342,6.0,7.0,51,0.00,,,0.00,Wunderground v.1.15,2013-02-17 14:45:00,
2013-02-17 09:55:00,31.2,15.2,29.90,West,276,6.0,11.0,51,0.00,,,0.00,Wunderground v.1.15,2013-02-17 14:55:00,
2013-02-17 10:00:00,30.8,14.3,29.90,SW,228,7.0,8.0,50,0.00,,,0.00,Wunderground v.1.15,2013-02-17 15:00:00,
2013-02-17 10:05:00,31.2,14.7,29.90,NNW,348,7.0,8.0,50,0.00,,,0.01,Wunderground v.1.15,2013-02-17 15:05:00,
2013-02-17 10:15:00,31.5,14.5,29.90,NW,308,6.0,8.0,49,0.00,,,0.01,Wunderground v.1.15,2013-02-17 15:15:00,
2013-02-17 10:20:00,31.5,15.0,29.90,WNW,300,6.0,7.0,50,0.00,,,0.01,Wunderground v.1.15,2013-02-17 15:20:00,
2013-02-17 10:30:00,31.8,14.8,29.90,WNW,298,7.0,7.0,49,0.00,,,0.01,Wunderground v.1.15,2013-02-17 15:30:00,
2013-02-17 10:35:00,31.9,14.4,29.91,WNW,287,7.0,7.0,48,0.00,,,0.01,Wunderground v.1.15,2013-02-17 15:35:00,
2013-02-17 10:40:00,32.0,14.5,29.91,NW,313,7.0,7.0,48,0.00,,,0.01,Wunderground v.1.15,2013-02-17 15:40:00,
2013-02-17 10:45:00,32.3,15.3,29.91,NNW,327,7.0,7.0,49,0.00,,,0.01,Wunderground v.1.15,2013-02-17 15:45:00,
2013-02-17 10:50:00,32.3,15.3,29.91,NW,312,6.0,7.0,49,0.00,,,0.01,Wunderground v.1.15,2013-02-17 15:50:00,
2013-02-17 11:00:00,32.5,15.9,29.91,WNW,297,7.0,7.0,50,0.00,,,0.01,Wunderground v.1.15,2013-02-17 16:00:00,
2013-02-17 11:05:00,32.0,14.5,29.91,NNW,335,7.0,7.0,48,0.00,,,0.01,Wunderground v.1.15,2013-02-17 16:05:00,
2013-02-17 11:10:00,32.5,15.4,29.91,NW,316,7.0,11.0,49,0.00,,,0.01,Wunderground v.1.15,2013-02-17 16:10:00,
2013-02-17 11:15:00,31.9,14.4,29.91,West,280,7.0,11.0,48,0.00,,,0.01,Wunderground v.1.15,2013-02-17 16:15:00,
2013-02-17 11:20:00,32.2,16.1,29.92,North,9,6.0,13.0,51,0.00,,,0.01,Wunderground v.1.15,2013-02-17 16:20:00,
2013-02-17 11:25:00,32.3,16.6,29.91,West,279,6.0,13.0,52,0.00,,,0.01,Wunderground v.1.15,2013-02-17 16:25:00,
2013-02-17 11:35:00,32.5,15.9,29.91,NW,316,7.0,7.0,50,0.00,,,0.01,Wunderground v.1.15,2013-02-17 16:35:00,
2013-02-17 11:45:00,32.0,15.9,29.92,NW,315,7.0,11.0,51,0.00,,,0.01,Wunderground v.1.15,2013-02-17 16:45:00,
2013-02-17 11:50:00,32.2,16.5,29.91,WNW,286,7.0,7.0,52,0.00,,,0.01,Wunderground v.1.15,2013-02-17 16:50:00,
2013-02-17 11:55:00,32.6,16.4,29.92,West,275,7.0,7.0,51,0.00,,,0.01,Wunderground v.1.15,2013-02-17 16:55:00,
2013-02-17 12:00:00,32.3,14.8,29.92,NW,315,7.0,9.0,48,0.00,,,0.01,Wunderground v.1.15,2013-02-17 17:00:00,
2013-02-17 12:05:00,32.1,14.6,29.92,NNW,340,8.0,9.0,48,0.00,,,0.01,Wunderground v.1.15,2013-02-17 17:05:00,
2013-02-17 12:10:00,31.4,13.9,29.92,NNW,332,7.0,7.0,48,0.00,,,0.01,Wunderground v.1.15,2013-02-17 17:10:00,
2013-02-17 12:15:00,31.9,14.9,29.92,NW,317,6.0,12.0,49,0.00,,,0.01,Wunderground v.1.15,2013-02-17 17:15:00,
2013-02-17 12:20:00,32.7,15.1,29.92,NW,310,6.0,12.0,48,0.00,,,0.01,Wunderground v.1.15,2013-02-17 17:20:00,
2013-02-17 12:30:00,32.1,13.6,29.91,NW,305,8.0,8.0,46,0.00,,,0.01,Wunderground v.1.15,2013-02-17 17:30:00,
2013-02-17 12:35:00,32.0,14.5,29.92,WSW,240,8.0,8.0,48,0.00,,,0.01,Wunderground v.1.15,2013-02-17 17:35:00,
2013-02-17 12:45:00,31.7,14.2,29.92,North,354,7.0,9.0,48,0.00,,,0.01,Wunderground v.1.15,2013-02-17 17:45:00,
2013-02-17 12:50:00,31.4,14.4,29.92,WNW,292,8.0,8.0,49,0.00,,,0.01,Wunderground v.1.15,2013-02-17 17:50:00,
2013-02-17 12:55:00,31.2,14.7,29.92,NW,308,8.0,8.0,50,0.00,,,0.01,Wunderground v.1.15,2013-02-17 17:55:00,
2013-02-17 13:00:00,30.9,15.3,29.92,NNW,334,7.0,9.0,52,0.00,,,0.01,Wunderground v.1.15,2013-02-17 18:00:00,
2013-02-17 13:05:00,31.5,15.4,29.92,North,355,7.0,9.0,51,0.00,,,0.01,Wunderground v.1.15,2013-02-17 18:05:00,
2013-02-17 13:10:00,32.5,15.4,29.92,NW,317,6.0,6.0,49,0.00,,,0.01,Wunderground v.1.15,2013-02-17 18:10:00,
2013-02-17 13:20:00,33.0,16.4,29.92,SW,230,6.0,6.0,50,0.00,,,0.01,Wunderground v.1.15,2013-02-17 18:20:00,
2013-02-17 13:25:00,31.7,15.6,29.93,North,1,6.0,6.0,51,0.00,,,0.01,Wunderground v.1.15,2013-02-17 18:25:00,
2013-02-17 13:30:00,31.2,14.2,29.93,NNW,331,8.0,8.0,49,0.00,,,0.01,Wunderground v.1.15,2013-02-17 18:30:00,
2013-02-17 13:35:00,31.7,13.3,29.92,WNW,292,8.0,8.0,46,0.00,,,0.01,Wunderground v.1.15,2013-02-17 18:35:00,
2013-02-17 13:40:00,32.5,14.0,29.92,WNW,289,7.0,7.0,46,0.00,,,0.01,Wunderground v.1.15,2013-02-17 18:40:00,
2013-02-17 13:45:00,31.9,14.9,29.92,NW,321,6.0,7.0,49,0.00,,,0.01,Wunderground v.1.15,2013-02-17 18:45:00,
2013-02-17 13:55:00,31.5,15.4,29.93,NNW,343,6.0,12.0,51,0.00,,,0.01,Wunderground v.1.15,2013-02-17 18:55:00,
2013-02-17 14:05:00,31.3,17.0,29.93,West,276,6.0,7.0,55,0.00,,,0.01,Wunderground v.1.15,2013-02-17 19:05:00,
2013-02-17 14:10:00,32.0,15.9,29.93,NW,311,6.0,11.0,51,0.00,,,0.01,Wunderground v.1.15,2013-02-17 19:10:00,
2013-02-17 14:15:00,31.6,14.6,29.93,WNW,294,6.0,11.0,49,0.00,,,0.01,Wunderground v.1.15,2013-02-17 19:15:00,
2013-02-17 14:20:00,31.3,14.8,29.93,WSW,251,6.0,6.0,50,0.00,,,0.01,Wunderground v.1.15,2013-02-17 19:20:00,
2013-02-17 14:30:00,32.3,16.2,29.93,West,274,6.0,6.0,51,0.00,,,0.01,Wunderground v.1.15,2013-02-17 19:30:00,
2013-02-17 14:35:00,32.6,15.1,29.93,West,264,6.0,6.0,48,0.00,,,0.01,Wunderground v.1.15,2013-02-17 19:35:00,
2013-02-17 14:45:00,31.8,14.3,29.94,SW,227,7.0,8.0,48,0.00,,,0.01,Wunderground v.1.15,2013-02-17 19:45:00,
2013-02-17 14:50:00,31.5,15.4,29.94,NNW,348,8.0,8.0,51,0.00,,,0.01,Wunderground v.1.15,2013-02-17 19:50:00,
2013-02-17 14:55:00,31.9,14.4,29.93,NNW,347,6.0,8.0,48,0.00,,,0.01,Wunderground v.1.15,2013-02-17 19:55:00,
2013-02-17 15:00:00,31.7,14.2,29.93,NW,317,6.0,6.0,48,0.00,,,0.01,Wunderground v.1.15,2013-02-17 20:00:00,
2013-02-17 15:05:00,32.0,14.5,29.93,WNW,282,7.0,7.0,48,0.00,,,0.01,Wunderground v.1.15,2013-02-17 20:05:00,
2013-02-17 15:10:00,32.5,14.5,29.93,WNW,296,7.0,9.0,47,0.00,,,0.01,Wunderground v.1.15,2013-02-17 20:10:00,
2013-02-17 15:15:00,32.1,14.1,29.94,WSW,253,6.0,13.0,47,0.00,,,0.01,Wunderground v.1.15,2013-02-17 20:15:00,
2013-02-17 15:20:00,31.5,13.6,29.94,NW,305,6.0,8.0,47,0.00,,,0.01,Wunderground v.1.15,2013-02-17 20:20:00,
2013-02-17 15:30:00,31.4,13.5,29.94,WNW,283,5.0,10.0,47,0.00,,,0.01,Wunderground v.1.15,2013-02-17 20:30:00,
2013-02-17 15:40:00,31.6,14.1,29.94,SW,230,6.0,6.0,48,0.00,,,0.01,Wunderground v.1.15,2013-02-17 20:40:00,
2013-02-17 15:45:00,31.9,12.9,29.95,NE,47,7.0,7.0,45,0.00,,,0.01,Wunderground v.1.15,2013-02-17 20:45:00,
2013-02-17 15:50:00,31.5,12.6,29.95,West,269,7.0,7.0,45,0.00,,,0.01,Wunderground v.1.15,2013-02-17 20:50:00,
2013-02-17 15:55:00,31.2,13.3,29.95,NW,306,6.0,7.0,47,0.00,,,0.01,Wunderground v.1.15,2013-02-17 20:55:00,
2013-02-17 16:00:00,31.0,11.6,29.95,WSW,255,6.0,13.0,44,0.00,,,0.01,Wunderground v.1.15,2013-02-17 21:00:00,
2013-02-17 16:05:00,31.4,13.0,29.96,WNW,300,7.0,13.0,46,0.00,,,0.01,Wunderground v.1.15,2013-02-17 21:05:00,
2013-02-17 16:10:00,31.4,12.5,29.96,NNW,330,7.0,7.0,45,0.00,,,0.01,Wunderground v.1.15,2013-02-17 21:10:00,
2013-02-17 16:15:00,31.4,13.5,29.96,WNW,289,7.0,7.0,47,0.00,,,0.01,Wunderground v.1.15,2013-02-17 21:15:00,
2013-02-17 16:25:00,31.0,14.5,29.97,NW,315,7.0,7.0,50,0.00,,,0.01,Wunderground v.1.15,2013-02-17 21:25:00,
2013-02-17 16:30:00,30.6,15.0,29.97,North,2,6.0,7.0,52,0.00,,,0.01,Wunderground v.1.15,2013-02-17 21:30:00,
2013-02-17 16:35:00,30.3,14.8,29.97,West,274,6.0,7.0,52,0.00,,,0.01,Wunderground v.1.15,2013-02-17 21:35:00,
2013-02-17 16:45:00,30.3,14.3,29.97,West,280,6.0,6.0,51,0.00,,,0.01,Wunderground v.1.15,2013-02-17 21:45:00,
2013-02-17 16:50:00,30.2,15.1,29.98,West,276,7.0,7.0,53,0.00,,,0.01,Wunderground v.1.15,2013-02-17 21:50:00,
2013-02-17 16:55:00,30.2,13.8,29.98,West,276,6.0,7.0,50,0.00,,,0.01,Wunderground v.1.15,2013-02-17 21:55:00,
2013-02-17 17:00:00,30.1,14.1,29.99,NW,326,6.0,6.0,51,0.00,,,0.01,Wunderground v.1.15,2013-02-17 22:00:00,
2013-02-17 17:05:00,30.0,14.0,29.98,WNW,295,6.0,6.0,51,0.00,,,0.01,Wunderground v.1.15,2013-02-17 22:05:00,
2013-02-17 17:15:00,30.0,13.6,30.00,West,274,6.0,6.0,50,0.00,,,0.01,Wunderground v.1.15,2013-02-17 22:15:00,
2013-02-17 17:20:00,30.0,14.9,30.00,NW,319,7.0,7.0,53,0.00,,,0.01,Wunderground v.1.15,2013-02-17 22:20:00,
2013-02-17 17:25:00,29.7,14.2,30.00,NW,313,6.0,7.0,52,0.00,,,0.01,Wunderground v.1.15,2013-02-17 22:25:00,
2013-02-17 17:30:00,29.5,14.5,30.01,WNW,295,6.0,6.0,53,0.00,,,0.01,Wunderground v.1.15,2013-02-17 22:30:00,
2013-02-17 17:35:00,29.4,13.9,30.01,West,269,6.0,6.0,52,0.00,,,0.01,Wunderground v.1.15,2013-02-17 22:35:00,
2013-02-17 17:40:00,29.2,14.2,30.01,NW,304,5.0,5.0,53,0.00,,,0.01,Wunderground v.1.15,2013-02-17 22:40:00,
2013-02-17 17:45:00,29.2,14.2,30.01,West,263,5.0,5.0,53,0.00,,,0.01,Wunderground v.1.15,2013-02-17 22:45:00,
2013-02-17 17:55:00,28.8,14.6,30.02,NW,306,6.0,9.0,55,0.00,,,0.01,Wunderground v.1.15,2013-02-17 22:55:00,
2013-02-17 18:05:00,28.6,13.6,30.03,NW,313,6.0,6.0,53,0.00,,,0.01,Wunderground v.1.15,2013-02-17 23:05:00,
2013-02-17 18:10:00,28.8,12.9,30.03,West,260,7.0,7.0,51,0.00,,,0.01,Wunderground v.1.15,2013-02-17 23:10:00,
2013-02-17 18:15:00,28.8,12.9,30.03,SW,234,6.0,8.0,51,0.00,,,0.01,Wunderground v.1.15,2013-02-17 23:15:00,
2013-02-17 18:20:00,28.9,13.0,30.03,NNE,27,6.0,6.0,51,0.00,,,0.01,Wunderground v.1.15,2013-02-17 23:20:00,
2013-02-17 18:30:00,28.9,12.6,30.04,WNW,282,7.0,7.0,50,0.00,,,0.01,Wunderground v.1.15,2013-02-17 23:30:00,
2013-02-17 18:35:00,28.8,12.5,30.04,NW,309,7.0,7.0,50,0.00,,,0.01,Wunderground v.1.15,2013-02-17 23:35:00,
2013-02-17 18:45:00,28.8,12.5,30.04,NW,319,6.0,6.0,50,0.00,,,0.01,Wunderground v.1.15,2013-02-17 23:45:00,
2013-02-17 18:50:00,28.7,12.4,30.05,NW,316,6.0,7.0,50,0.00,,,0.01,Wunderground v.1.15,2013-02-17 23:50:00,
2013-02-17 18:55:00,28.7,12.4,30.05,WNW,294,6.0,7.0,50,0.00,,,0.01,Wunderground v.1.15,2013-02-17 23:55:00,
2013-02-17 19:05:00,28.6,11.4,30.05,WNW,302,6.0,13.0,48,0.00,,,0.01,Wunderground v.1.15,2013-02-18 00:05:00,
2013-02-17 19:10:00,28.6,12.3,30.05,NW,313,7.0,11.0,50,0.00,,,0.01,Wunderground v.1.15,2013-02-18 00:10:00,
2013-02-17 19:15:00,28.5,12.2,30.06,WNW,288,6.0,11.0,50,0.00,,,0.01,Wunderground v.1.15,2013-02-18 00:15:00,
2013-02-17 19:20:00,28.4,12.6,30.06,WNW,286,5.0,5.0,51,0.00,,,0.01,Wunderground v.1.15,2013-02-18 00:20:00,
2013-02-17 19:25:00,28.3,12.5,30.07,West,267,5.0,6.0,51,0.00,,,0.01,Wunderground v.1.15,2013-02-18 00:25:00,
2013-02-17 19:35:00,28.2,12.8,30.07,NW,319,5.0,6.0,52,0.00,,,0.01,Wunderground v.1.15,2013-02-18 00:35:00,
2013-02-17 19:40:00,28.2,12.8,30.07,West,277,5.0,11.0,52,0.00,,,0.01,Wunderground v.1.15,2013-02-18 00:40:00,
2013-02-17 19:45:00,28.2,11.9,30.08,NW,309,6.0,11.0,50,0.00,,,0.01,Wunderground v.1.15,2013-02-18 00:45:00,
2013-02-17 19:50:00,28.1,12.3,30.08,WNW,289,6.0,9.0,51,0.00,,,0.01,Wunderground v.1.15,2013-02-18 00:50:00,
2013-02-17 19:55:00,28.0,11.7,30.08,NW,317,5.0,9.0,50,0.00,,,0.01,Wunderground v.1.15,2013-02-18 00:55:00,
2013-02-17 20:00:00,28.0,12.6,30.08,NNW,332,5.0,5.0,52,0.00,,,0.01,Wunderground v.1.15,2013-02-18 01:00:00,
2013-02-17 20:05:00,27.8,12.4,30.08,West,275,4.0,5.0,52,0.00,,,0.01,Wunderground v.1.15,2013-02-18 01:05:00,
2013-02-17 20:10:00,27.7,12.3,30.09,NW,325,4.0,4.0,52,0.00,,,0.01,Wunderground v.1.15,2013-02-18 01:10:00,
2013-02-17 20:15:00,27.7,12.8,30.09,NNE,14,4.0,5.0,53,0.00,,,0.01,Wunderground v.1.15,2013-02-18 01:15:00,
2013-02-17 20:25:00,27.8,12.9,30.09,NNW,340,4.0,5.0,53,0.00,,,0.01,Wunderground v.1.15,2013-02-18 01:25:00,
2013-02-17 20:30:00,27.8,12.9,30.10,NW,321,4.0,4.0,53,0.00,,,0.01,Wunderground v.1.15,2013-02-18 01:30:00,
2013-02-17 20:35:00,27.9,13.0,30.10,NNW,333,5.0,8.0,53,0.00,,,0.01,Wunderground v.1.15,2013-02-18 01:35:00,
2013-02-17 20:45:00,27.6,11.8,30.10,WSW,247,5.0,6.0,51,0.00,,,0.01,Wunderground v.1.15,2013-02-18 01:45:00,
2013-02-17 20:50:00,27.5,11.7,30.11,NW,305,5.0,7.0,51,0.00,,,0.01,Wunderground v.1.15,2013-02-18 01:50:00,
2013-02-17 20:55:00,27.4,12.5,30.11,WNW,294,5.0,7.0,53,0.00,,,0.01,Wunderground v.1.15,2013-02-18 01:55:00,
2013-02-17 21:00:00,27.4,12.5,30.11,NW,308,5.0,6.0,53,0.00,,,0.01,Wunderground v.1.15,2013-02-18 02:00:00,
2013-02-17 21:10:00,27.3,12.4,30.12,West,278,5.0,5.0,53,0.00,,,0.00,Wunderground v.1.15,2013-02-18 02:10:00,
2013-02-17 21:20:00,27.2,12.3,30.13,WNW,284,4.0,4.0,53,0.00,,,0.00,Wunderground v.1.15,2013-02-18 02:20:00,
2013-02-17 21:25:00,27.2,11.9,30.13,NW,324,6.0,6.0,52,0.00,,,0.00,Wunderground v.1.15,2013-02-18 02:25:00,
2013-02-17 21:30:00,27.2,13.1,30.13,NNW,334,5.0,5.0,55,0.00,,,0.00,Wunderground v.1.15,2013-02-18 02:30:00,
2013-02-17 21:35:00,27.1,12.2,30.13,West,267,5.0,6.0,53,0.00,,,0.00,Wunderground v.1.15,2013-02-18 02:35:00,
2013-02-17 21:40:00,27.2,12.7,30.13,WNW,283,6.0,6.0,54,0.00,,,0.00,Wunderground v.1.15,2013-02-18 02:40:00,
2013-02-17 21:45:00,27.1,13.1,30.14,West,272,6.0,6.0,55,0.00,,,0.00,Wunderground v.1.15,2013-02-18 02:45:00,
2013-02-17 21:50:00,26.9,12.0,30.14,NW,324,5.0,5.0,53,0.00,,,0.00,Wunderground v.1.15,2013-02-18 02:50:00,
2013-02-17 21:55:00,26.8,12.8,30.14,NW,326,5.0,5.0,55,0.00,,,0.00,Wunderground v.1.15,2013-02-18 02:55:00,
2013-02-17 22:00:00,26.8,12.8,30.15,WNW,297,5.0,9.0,55,0.00,,,0.00,Wunderground v.1.15,2013-02-18 03:00:00,
2013-02-17 22:10:00,26.8,12.4,30.15,NW,313,6.0,6.0,54,0.00,,,0.00,Wunderground v.1.15,2013-02-18 03:10:00,
2013-02-17 22:15:00,26.8,12.8,30.15,NNW,328,6.0,12.0,55,0.00,,,0.00,Wunderground v.1.15,2013-02-18 03:15:00,
2013-02-17 22:20:00,26.8,13.2,30.15,WNW,291,7.0,8.0,56,0.00,,,0.00,Wunderground v.1.15,2013-02-18 03:20:00,
2013-02-17 22:30:00,26.6,11.7,30.15,NNW,342,8.0,8.0,53,0.00,,,0.00,Wunderground v.1.15,2013-02-18 03:30:00,
2013-02-17 22:35:00,26.6,12.2,30.15,WNW,300,7.0,8.0,54,0.00,,,0.00,Wunderground v.1.15,2013-02-18 03:35:00,
2013-02-17 22:40:00,26.5,12.5,30.15,WNW,295,6.0,6.0,55,0.00,,,0.00,Wunderground v.1.15,2013-02-18 03:40:00,
2013-02-17 22:45:00,26.5,12.1,30.16,WNW,294,6.0,6.0,54,0.00,,,0.00,Wunderground v.1.15,2013-02-18 03:45:00,
2013-02-17 22:50:00,26.4,12.4,30.16,West,272,7.0,7.0,55,0.00,,,0.00,Wunderground v.1.15,2013-02-18 03:50:00,
2013-02-17 23:00:00,26.3,12.3,30.16,NNW,338,7.0,7.0,55,0.00,,,0.00,Wunderground v.1.15,2013-02-18 04:00:00,
2013-02-17 23:05:00,26.2,11.8,30.16,NNW,327,7.0,7.0,54,0.00,,,0.00,Wunderground v.1.15,2013-02-18 04:05:00,
2013-02-17 23:10:00,26.2,11.4,30.16,SW,236,7.0,7.0,53,0.00,,,0.00,Wunderground v.1.15,2013-02-18 04:10:00,
2013-02-17 23:15:00,26.2,10.9,30.16,North,357,8.0,8.0,52,0.00,,,0.00,Wunderground v.1.15,2013-02-18 04:15:00,
2013-02-17 23:20:00,26.1,10.9,30.17,NW,318,9.0,11.0,52,0.00,,,0.00,Wunderground v.1.15,2013-02-18 04:20:00,
2013-02-17 23:25:00,26.1,10.9,30.17,WNW,284,8.0,11.0,52,0.00,,,0.00,Wunderground v.1.15,2013-02-18 04:25:00,
2013-02-17 23:35:00,25.9,11.1,30.17,NNW,344,6.0,7.0,53,0.00,,,0.00,Wunderground v.1.15,2013-02-18 04:35:00,